Regional Weather Roundup
Issued by NWS Albany, NY

Home | Current Version | Previous Version | Text Only | Print | Product List | Glossary On
Versions: 1 2 3 4 5 6 7 8 9 10 11 12 13 14 15 16 17 18 19 20 21 22 23 24 25 26 27 28 29 30 31 32 33 34 35 36 37 38 39 40 41 42 43 44 45 46 47 48 49 50
000
ASUS41 KALY 121010
RWRALY

NEW YORK STATE HOURLY WEATHER ROUNDUP
NATIONAL WEATHER SERVICE ALBANY NY
500 AM EST TUE DEC 12 2017

NOTE: "FAIR" INDICATES FEW OR NO CLOUDS BELOW 12,000 FEET WITH NO
SIGNIFICANT WEATHER AND/OR NO OBSTRUCTIONS TO VISIBILITY.

NYZ032-033-038>043-046>054-057>066-NYZ062>081-082-084-121100-
EAST


CITY           SKY/WX    TMP DP  RH WIND       PRES   REMARKS
ALBANY         LGT SNOW  30  27  88 SE5       29.75F FOG     WCI  25
GLENS FALLS    SNOW      22  21  96 CALM      29.75F VSB 1/2
POUGHKEEPSIE   CLOUDY    36  25  64 SE5       29.74F WCI  32
NEWBURGH       MOCLDY    36  28  75 VRB7      29.74F WCI  30
MONTGOMERY     CLOUDY    31  26  82 NE6       29.71F WCI  25
WHITE PLAINS   CLOUDY    36  30  79 SE6       29.75F WCI  31
ISLIP          CLOUDY    43  34  70 S9        29.79F
NEW YORK CITY  CLOUDY    45  36  70 S10G16    29.76F
CENTRAL PARK   CLOUDY    45  36  70 S6        29.77F
$$

NYZ005>009-017-018-044>046-055-056-121100-
CENTRAL


CITY           SKY/WX    TMP DP  RH WIND       PRES   REMARKS
FULTON         LGT SNOW  30  28  92 SE8       29.56F VSB 1   WCI  22
SYRACUSE       LGT SNOW  29  29 100 E9        29.57F VSB 1   WCI  20
ROME           LGT SNOW  27  25  92 SE12      29.63F VSB 1   WCI  17
ELMIRA         CLOUDY    35  29  78 SE7       29.53F WCI  29
BINGHAMTON     LGT SNOW  29  26  89 S10       29.53F FOG     WCI  20
$$

NYZ026>034-041>043-087-121100-
NORTH


CITY           SKY/WX    TMP DP  RH WIND       PRES   REMARKS
WATERTOWN      LGT SNOW  30  29  96 SE7       29.58F VSB 3/4 WCI  23
FORT DRUM      NOT AVBL
OGDENSBURG     LGT SNOW  19  17  92 NE12      29.64F VSB 1   WCI   6
MASSENA        LGT SNOW  17  14  88 E14G24    29.71F VSB 1   WCI   3
SARANAC LAKE   LGT SNOW  17  16  95 NE8       29.58F FOG     WCI   7
PLATTSBURGH    LGT SNOW  18  15  88 CALM      29.76F FOG
$$

NYZ001>004-010>016-019>021-085-121100-
WEST


CITY           SKY/WX    TMP DP  RH WIND       PRES   REMARKS
NIAGARA FALLS  LGT SNOW  31  26  82 CALM      29.52F VSB 1
BUFFALO        LGT SNOW  30  30 100 S5        29.51F VSB 1   WCI  25
DUNKIRK        LGT SNOW  30  29  96 S7        29.52F FOG     WCI  23
JAMESTOWN      LGT SNOW  27  27 100 SW5       29.47F FOG     WCI  21
WELLSVILLE     LGT SNOW  31  26  82 S8        29.45F WCI  23
ROCHESTER      LGT SNOW  30  30 100 SE3       29.52F FOG
PENN YAN       CLOUDY    29  25  85 CALM      29.51F FOG
$$

             KEY
       WCI = WIND CHILL INDEX
       VSB = VISIBILITY
       HX  = HEAT INDEX
$$



USA.gov is the U.S. government's official web portal to all federal, state and local government web resources and services.